Date String (YYYY-MM-DD hh:mm:ss) UTC,Instrument flags,absolute air pressure of the measurement (hPa),sample flow rate (lpm),inlet stack bypass flow (lpm),air temperature of the measurement (°C),ambient temperature measured by the external sensor (°C),aerosol sample conditioner tube jacket temperature (°C),OPC LED temperature (°C),internal box temperature (°C),relative humidity of the measurement (%),span deviation,mass concentration of particles derived from Lorenz-Mie calculation of OPC scattering (μg/m³),mass concentration of particles derived from Lorenz-Mie calculation of OPC scattering (μg/m³),mass concentration of particles derived from Lorenz-Mie calculation of OPC scattering (μg/m³)
DateTimeUTC,F1_M11,P_M11,Q1_M11,Q2_M11,T1_M11,T2_M11,T3_M11,T4_M11,T5_M11,U1_M11,ZSPAN_M11,X0_M11,X2_M11,X1_M11
2024-02-16 04:00:00,SystemResetWarning,0827.1,4.99,000.00,020.2,019.7,000.0,028.8,022.1,20.4,0002.2,0020.39,0010.36,0009.61
2024-02-16 04:01:00,SystemResetWarning,0827.1,5.01,000.00,020.2,019.7,000.0,028.8,022.1,20.4,0002.3,0021.11,0010.16,0009.43
2024-02-16 04:02:00,SystemResetWarning,0827.1,5.00,000.00,020.2,019.7,000.0,028.8,022.1,20.4,0002.6,0022.05,0009.99,0009.25
2024-02-16 04:03:00,SystemResetWarning,0827.0,5.00,000.00,020.2,019.7,000.0,028.8,022.1,20.3,0002.4,0021.86,0009.77,0009.06
2024-02-16 04:04:00,SystemResetWarning,0827.0,5.00,000.00,020.2,019.7,000.0,028.8,022.1,20.3,0002.4,0020.62,0009.44,0008.78
2024-02-16 04:05:00,SystemResetWarning,0827.0,5.00,000.00,020.2,019.7,000.0,028.8,022.1,20.3,0002.3,0019.31,0009.11,0008.50
2024-02-16 04:06:00,SystemResetWarning,0827.0,4.99,000.00,020.2,019.7,000.0,028.8,022.1,20.3,0002.3,0018.54,0008.88,0008.31
2024-02-16 04:07:00,SystemResetWarning,0827.0,5.00,000.00,020.2,019.7,000.0,028.8,022.1,20.3,0002.2,0017.89,0008.62,0008.10
2024-02-16 04:08:00,SystemResetWarning,0827.0,5.00,000.00,020.2,019.7,000.0,028.8,022.1,20.3,0001.8,0017.44,0008.46,0007.97
2024-02-16 04:09:00,SystemResetWarning,0827.0,5.00,000.00,020.2,019.7,000.0,028.7,022.0,20.4,0001.6,0016.32,0008.29,0007.82
2024-02-16 04:10:00,SystemResetWarning,0827.1,5.00,000.00,020.2,019.7,000.0,028.7,022.0,20.3,0001.8,0014.79,0008.12,0007.65
2024-02-16 04:11:00,SystemResetWarning,0827.1,4.99,000.00,020.2,019.7,000.0,028.7,022.1,20.4,0001.6,0014.62,0007.98,0007.52
2024-02-16 04:12:00,SystemResetWarning,0827.1,4.99,000.00,020.2,019.7,000.0,028.7,022.1,20.4,0001.4,0014.74,0007.93,0007.46
2024-02-16 04:13:00,SystemResetWarning,0827.1,5.01,000.00,020.2,019.7,000.0,028.7,022.1,20.4,0001.4,0012.91,0007.78,0007.37
2024-02-16 04:14:00,SystemResetWarning,0827.2,5.01,000.00,020.2,019.7,000.0,028.7,022.1,20.4,0001.7,0012.65,0007.72,0007.30
2024-02-16 04:15:00,SystemResetWarning,0827.2,5.00,000.00,020.2,019.7,000.0,028.7,022.1,20.4,0001.7,0012.91,0007.71,0007.30
2024-02-16 04:16:00,SystemResetWarning,0827.1,5.00,000.00,020.2,019.7,000.0,028.7,022.1,20.3,0001.9,0013.28,0007.74,0007.29
2024-02-16 04:17:00,SystemResetWarning,0827.2,5.00,000.00,020.2,019.7,000.0,028.7,022.1,20.3,0002.3,0013.61,0007.71,0007.26
2024-02-16 04:18:00,SystemResetWarning,0827.2,5.00,000.00,020.2,019.7,000.0,028.7,022.1,20.3,0002.3,0013.66,0007.77,0007.26
2024-02-16 04:19:00,SystemResetWarning,0827.2,5.00,000.00,020.2,019.7,000.0,028.7,022.1,20.3,0002.2,0014.26,0007.80,0007.25
2024-02-16 04:20:00,SystemResetWarning,0827.2,5.00,000.00,020.2,019.7,000.0,028.7,022.1,20.3,0002.3,0014.32,0007.76,0007.20
2024-02-16 04:21:00,SystemResetWarning,0827.3,5.00,000.00,020.2,019.7,000.0,028.7,022.1,20.4,0002.1,0014.38,0007.75,0007.18
2024-02-16 04:22:00,SystemResetWarning,0827.3,5.00,000.00,020.2,019.7,000.0,028.7,022.0,20.4,0002.5,0013.66,0007.71,0007.15
2024-02-16 04:23:00,SystemResetWarning,0827.3,5.00,000.00,020.2,019.7,000.0,028.7,022.1,20.4,0002.6,0013.03,0007.69,0007.15
2024-02-16 04:24:00,SystemResetWarning,0827.4,4.99,000.00,020.2,019.7,000.0,028.7,022.1,20.4,0002.3,0012.98,0007.76,0007.19
2024-02-16 04:25:00,SystemResetWarning,0827.4,5.00,000.00,020.2,019.7,000.0,028.7,022.1,20.3,0002.0,0012.98,0007.79,0007.23
2024-02-16 04:26:00,SystemResetWarning,0827.9,4.99,000.00,020.2,019.7,000.0,028.7,022.1,20.4,0001.9,0013.16,0007.83,0007.26
2024-02-16 04:27:00,SystemResetWarning,0827.5,5.00,000.00,020.2,019.7,000.0,028.7,022.0,20.4,0001.9,0013.15,0007.84,0007.27
2024-02-16 04:28:00,SystemResetWarning,0827.5,5.00,000.00,020.2,019.7,000.0,028.7,022.0,20.4,0001.7,0012.40,0007.84,0007.28
2024-02-16 04:29:00,SystemResetWarning,0827.6,5.00,000.00,020.2,019.7,000.0,028.7,022.0,20.4,0001.7,0012.31,0007.79,0007.27
2024-02-16 04:30:00,SystemResetWarning,0827.8,5.00,000.00,020.2,019.7,000.0,028.7,022.0,20.4,0002.1,0011.63,0007.68,0007.23
2024-02-16 04:31:00,SystemResetWarning,0827.7,5.00,000.00,020.2,019.7,000.0,028.7,022.0,20.3,0002.4,0011.47,0007.65,0007.21
2024-02-16 04:32:00,SystemResetWarning,0827.8,5.00,000.00,020.2,019.7,000.0,028.7,022.1,20.3,0002.6,0012.45,0007.64,0007.22
2024-02-16 04:33:00,SystemResetWarning,0827.9,5.00,000.00,020.2,019.7,000.0,028.7,022.0,20.3,0002.7,0012.84,0007.66,0007.23
2024-02-16 04:34:00,SystemResetWarning,0827.8,5.00,000.00,020.2,019.7,000.0,028.7,022.0,20.3,0002.8,0013.31,0007.65,0007.18
2024-02-16 04:35:00,SystemResetWarning,0827.9,5.01,000.00,020.2,019.6,000.0,028.7,022.1,20.3,0002.9,0013.26,0007.59,0007.11
2024-02-16 04:36:00,SystemResetWarning,0828.0,5.01,000.00,020.2,019.6,000.0,028.7,022.0,20.4,0002.8,0013.28,0007.55,0007.03
2024-02-16 04:37:00,SystemResetWarning,0828.1,5.00,000.00,020.2,019.6,000.0,028.7,022.0,20.5,0002.8,0013.14,0007.49,0006.96
2024-02-16 04:38:00,SystemResetWarning,0828.0,5.00,000.00,020.2,019.7,000.0,028.7,022.0,20.5,0002.9,0013.19,0007.43,0006.92
2024-02-16 04:39:00,SystemResetWarning,0828.0,4.99,000.00,020.2,019.7,000.0,028.7,022.0,20.5,0003.0,0013.13,0007.40,0006.91
2024-02-16 04:40:00,SystemResetWarning,0827.9,5.00,000.00,020.2,019.7,000.0,028.7,022.1,20.5,0002.8,0013.55,0007.41,0006.90
2024-02-16 04:41:00,SystemResetWarning,0827.9,4.99,000.00,020.2,019.7,000.0,028.7,022.1,20.5,0002.7,0014.00,0007.47,0006.93
2024-02-16 04:42:00,SystemResetWarning,0827.9,5.00,000.00,020.2,019.7,000.0,028.7,022.1,20.4,0002.6,0014.27,0007.56,0006.99
2024-02-16 04:43:00,SystemResetWarning,0827.9,5.00,000.00,020.2,019.7,000.0,028.7,022.1,20.4,0002.4,0013.25,0007.62,0007.00
2024-02-16 04:44:00,SystemResetWarning,0827.9,5.00,000.00,020.2,019.7,000.0,028.7,022.1,20.4,0002.4,0013.60,0007.60,0006.97
2024-02-16 04:45:00,SystemResetWarning,0827.9,5.00,000.00,020.2,019.7,000.0,028.7,022.1,20.4,0002.1,0013.80,0007.55,0006.92
2024-02-16 04:46:00,SystemResetWarning,0827.9,5.00,000.00,020.2,019.7,000.0,028.7,022.1,20.4,0002.2,0014.30,0007.45,0006.87
2024-02-16 04:47:00,SystemResetWarning,0827.9,5.01,000.00,020.2,019.7,000.0,028.7,022.1,20.3,0002.4,0014.15,0007.38,0006.83
2024-02-16 04:48:00,SystemResetWarning,0827.9,5.01,000.00,020.2,019.7,000.0,028.7,022.0,20.3,0002.4,0013.86,0007.34,0006.79
2024-02-16 04:49:00,SystemResetWarning,0828.0,5.00,000.00,020.2,019.7,000.0,028.7,022.1,20.3,0002.1,0013.69,0007.31,0006.76
2024-02-16 04:50:00,SystemResetWarning,0828.1,4.99,000.00,020.2,019.7,000.0,028.7,022.1,20.4,0001.8,0013.73,0007.28,0006.73
2024-02-16 04:51:00,SystemResetWarning,0828.1,4.99,000.00,020.2,019.7,000.0,028.7,022.0,20.4,0001.9,0013.56,0007.27,0006.74
2024-02-16 04:52:00,SystemResetWarning,0828.1,5.01,000.00,020.2,019.7,000.0,028.7,022.0,20.5,0001.7,0013.12,0007.21,0006.70
2024-02-16 04:53:00,SystemResetWarning,0828.0,5.01,000.00,020.2,019.7,000.0,028.7,022.1,20.5,0001.5,0012.73,0007.12,0006.64
2024-02-16 04:54:00,SystemResetWarning,0828.1,5.00,000.00,020.2,019.7,000.0,028.7,022.1,20.5,0001.6,0012.62,0007.04,0006.60
2024-02-16 04:55:00,SystemResetWarning,0828.1,4.99,000.00,020.2,019.7,000.0,028.7,022.0,20.6,0001.5,0012.93,0007.02,0006.61
2024-02-16 04:56:00,SystemResetWarning,0828.1,5.00,000.00,020.2,019.7,000.0,028.7,022.0,20.6,0002.1,0012.28,0007.06,0006.66
2024-02-16 04:57:00,SystemResetWarning,0828.1,5.00,000.00,020.2,019.7,000.0,028.7,022.1,20.6,0002.0,0011.68,0007.10,0006.69
2024-02-16 04:58:00,SystemResetWarning,0828.2,5.01,000.00,020.2,019.7,000.0,028.7,022.0,20.7,0001.8,0011.70,0007.11,0006.70
2024-02-16 04:59:00,SystemResetWarning,0828.2,5.00,000.00,020.2,019.7,000.0,028.7,022.0,20.7,0001.6,0011.65,0007.11,0006.72
